Regional Weather Roundup
Issued by NWS

Home | Current Version | Previous Version | Graphics & Text | Print | Product List | Glossary On
Versions: 1 2 3 4 5 6 7 8 9 10 11 12 13 14 15 16 17 18 19 20 21 22 23 24 25 26 27 28 29 30 31 32 33 34 35 36 37 38 39 40 41 42 43 44 45 46 47 48 49 50
000
ASUS43 KBIS 190401
RWRND

NORTH DAKOTA REGIONAL WEATHER ROUNDUP
NATIONAL WEATHER SERVICE BISMARCK ND
1100 PM CDT SAT APR 18 2015

NOTE: "FAIR" INDICATES FEW OR NO CLOUDS BELOW 12,000 FEET WITH NO
SIGNIFICANT WEATHER AND/OR OBSTRUCTIONS TO VISIBILITY.


NDZ001>003-009>011-017-190500-
NORTHWEST NORTH DAKOTA

CITY           SKY/WX    TMP DP  RH WIND       PRES   REMARKS
WILLISTON      PTCLDY    47  27  45 NW16      30.03R
MINOT          LGT RAIN  49  43  80 W9        29.93S
MINOT AFB      DRIZZLE   48  48  99 W12       29.92R
$$

NDZ018>021-031>035-040>046-190500-
SOUTHWEST NORTH DAKOTA

CITY           SKY/WX    TMP DP  RH WIND       PRES   REMARKS
BISMARCK       LGT RAIN  48  45  89 W6        29.92F
DICKINSON      CLOUDY    46  36  68 NW12      29.97S
GARRISON         N/A     48  46  93 NW13      29.94R
HETTINGER ARPT LGT RAIN  47  44  90 N14       29.99R
$$

NDZ004>008-012>016-024-026-027-054-190500-
NORTHEAST NORTH DAKOTA

CITY           SKY/WX    TMP DP  RH WIND       PRES   REMARKS
GRAND FORKS    CLOUDY    55  33  43 W8        29.82F
GRND FRKS AFB  CLEAR     59  29  31 SW13      29.82F
DEVILS LAKE    CLOUDY    55  36  47 SW15      29.84S
$$

NDZ022-023-025-028>030-036>039-047>053-190500-
SOUTHEAST NORTH DAKOTA

CITY           SKY/WX    TMP DP  RH WIND       PRES   REMARKS
FARGO          CLOUDY    64  32  30 SE13      29.81F
JAMESTOWN      CLOUDY    55  38  52 NW16      29.82F
$$




USA.gov is the U.S. government's official web portal to all federal, state and local government web resources and services.